カタログに戻る

COMSTAR 2

運用中通信GEO
NORAD 9047·PAYLOAD·🇺🇸 United States

打ち上げ Jul 22, 1976 から Cape Canaveral Space Force Station

Loading…

TLE

最新Source: Space-Track

元期: Sep 14, 2026, 12:05 UTC

1 09047U 76073A   26257.50404054  .00000042  00000-0  00000-0 0  9993
2 09047   7.7379 304.5685 0001522 269.7044 197.5148  0.99969894 48109

AllMySatでCOMSTAR 2をリアルタイム追跡

Download on the App Store